Time,TemperatureF,DewpointF,PressureIn,WindDirection,WindDirectionDegrees,WindSpeedMPH,WindSpeedGustMPH,Humidity,HourlyPrecipIn,Conditions,Clouds,dailyrainin,SolarRadiationWatts/m^2,SoftwareType,DateUTC
2013-12-16 00:12:00,-7.0,-16.0,-100.00,WNW,282,2.0,5.0,65,0.00,,,0.00,0.000000,,2013-12-16 06:12:00,
2013-12-16 00:22:00,-7.0,-16.0,-100.00,WNW,282,2.0,5.0,65,0.00,,,0.00,0.000000,,2013-12-16 06:22:00,
2013-12-16 00:32:00,-7.0,-16.0,-100.00,WNW,282,2.0,5.0,65,0.00,,,0.00,0.000000,,2013-12-16 06:32:00,
2013-12-16 00:42:00,-7.0,-16.0,-100.00,WNW,282,2.0,5.0,65,0.00,,,0.00,0.000000,,2013-12-16 06:42:00,
2013-12-16 01:11:00,-7.0,-15.0,-100.00,WNW,282,3.0,6.0,67,0.00,,,0.00,0.000000,,2013-12-16 07:11:00,
2013-12-16 01:22:00,-7.0,-15.0,-100.00,WNW,282,3.0,6.0,67,0.00,,,0.00,0.000000,,2013-12-16 07:22:00,
2013-12-16 01:33:00,-7.0,-15.0,-100.00,WNW,282,3.0,6.0,67,0.00,,,0.00,0.000000,,2013-12-16 07:33:00,
2013-12-16 01:43:00,-7.0,-15.0,-100.00,WNW,282,3.0,6.0,67,0.00,,,0.00,0.000000,,2013-12-16 07:43:00,
2013-12-16 02:12:00,-9.0,-15.0,-100.00,North,-999,0.0,3.0,74,0.00,,,0.00,0.000000,,2013-12-16 08:12:00,
2013-12-16 02:22:00,-9.0,-15.0,-100.00,North,-999,0.0,3.0,74,0.00,,,0.00,0.000000,,2013-12-16 08:22:00,
2013-12-16 02:32:00,-9.0,-15.0,-100.00,North,-999,0.0,3.0,74,0.00,,,0.00,0.000000,,2013-12-16 08:32:00,
2013-12-16 02:42:00,-9.0,-15.0,-100.00,North,-999,0.0,3.0,74,0.00,,,0.00,0.000000,,2013-12-16 08:42:00,
2013-12-16 03:11:00,-6.0,-15.0,-100.00,NNW,345,2.0,4.0,65,0.00,,,0.00,0.000000,,2013-12-16 09:11:00,
2013-12-16 03:22:00,-6.0,-15.0,-100.00,NNW,345,2.0,4.0,65,0.00,,,0.00,0.000000,,2013-12-16 09:22:00,
2013-12-16 03:33:00,-6.0,-15.0,-100.00,NNW,345,2.0,4.0,65,0.00,,,0.00,0.000000,,2013-12-16 09:33:00,
2013-12-16 03:43:00,-6.0,-15.0,-100.00,NNW,345,2.0,4.0,65,0.00,,,0.00,0.000000,,2013-12-16 09:43:00,
2013-12-16 04:12:00,-4.0,-13.0,-100.00,NNW,345,1.0,4.0,65,0.00,,,0.00,0.000000,,2013-12-16 10:12:00,
2013-12-16 04:23:00,-4.0,-13.0,-100.00,NNW,345,1.0,4.0,65,0.00,,,0.00,0.000000,,2013-12-16 10:23:00,
2013-12-16 04:33:00,-4.0,-13.0,-100.00,NNW,345,1.0,4.0,65,0.00,,,0.00,0.000000,,2013-12-16 10:33:00,
2013-12-16 04:43:00,-4.0,-13.0,-100.00,NNW,345,1.0,4.0,65,0.00,,,0.00,0.000000,,2013-12-16 10:43:00,
2013-12-16 05:12:00,-2.0,-11.0,-100.00,SW,221,3.0,4.0,64,0.00,,,0.00,0.000000,,2013-12-16 11:12:00,
2013-12-16 05:22:00,-2.0,-11.0,-100.00,SW,221,3.0,4.0,64,0.00,,,0.00,0.000000,,2013-12-16 11:22:00,
2013-12-16 05:33:00,-2.0,-11.0,-100.00,SW,221,3.0,4.0,64,0.00,,,0.00,0.000000,,2013-12-16 11:33:00,
2013-12-16 05:42:00,-2.0,-11.0,-100.00,SW,221,3.0,4.0,64,0.00,,,0.00,0.000000,,2013-12-16 11:42:00,
2013-12-16 06:12:00,-5.0,-13.0,-100.00,NNW,328,3.0,4.0,68,0.00,,,0.00,0.000000,,2013-12-16 12:12:00,
2013-12-16 06:22:00,-5.0,-13.0,-100.00,NNW,328,3.0,4.0,68,0.00,,,0.00,0.000000,,2013-12-16 12:22:00,
2013-12-16 06:32:00,-5.0,-13.0,-100.00,NNW,328,3.0,4.0,68,0.00,,,0.00,0.000000,,2013-12-16 12:32:00,
2013-12-16 06:42:00,-5.0,-13.0,-100.00,NNW,328,3.0,4.0,68,0.00,,,0.00,0.000000,,2013-12-16 12:42:00,
2013-12-16 07:11:00,-4.0,-11.0,-100.00,South,189,1.0,3.0,71,0.00,,,0.00,0.000000,,2013-12-16 13:11:00,
2013-12-16 07:22:00,-4.0,-11.0,-100.00,South,189,1.0,3.0,71,0.00,,,0.00,0.000000,,2013-12-16 13:22:00,
2013-12-16 07:32:00,-4.0,-11.0,-100.00,South,189,1.0,3.0,71,0.00,,,0.00,0.000000,,2013-12-16 13:32:00,
2013-12-16 07:42:00,-4.0,-11.0,-100.00,South,189,1.0,3.0,71,0.00,,,0.00,0.000000,,2013-12-16 13:42:00,
2013-12-16 08:12:00,-3.0,-11.0,-100.00,SSE,149,2.0,5.0,68,0.00,,,0.00,3.000000,,2013-12-16 14:12:00,
2013-12-16 08:22:00,-3.0,-11.0,-100.00,SSE,149,2.0,5.0,68,0.00,,,0.00,3.000000,,2013-12-16 14:22:00,
2013-12-16 08:32:00,-3.0,-11.0,-100.00,SSE,149,2.0,5.0,68,0.00,,,0.00,3.000000,,2013-12-16 14:32:00,
2013-12-16 08:42:00,-3.0,-11.0,-100.00,SSE,149,2.0,5.0,68,0.00,,,0.00,3.000000,,2013-12-16 14:42:00,
2013-12-16 09:11:00,1.0,-8.0,-100.00,SSE,157,3.0,5.0,64,0.00,,,0.00,58.000000,,2013-12-16 15:11:00,
2013-12-16 09:22:00,1.0,-8.0,-100.00,SSE,157,3.0,5.0,64,0.00,,,0.00,58.000000,,2013-12-16 15:22:00,
2013-12-16 09:33:00,1.0,-8.0,-100.00,SSE,157,3.0,5.0,64,0.00,,,0.00,58.000000,,2013-12-16 15:33:00,
2013-12-16 09:43:00,1.0,-8.0,-100.00,SSE,157,3.0,5.0,64,0.00,,,0.00,58.000000,,2013-12-16 15:43:00,
2013-12-16 10:13:00,5.0,-5.0,-100.00,South,174,5.0,7.0,62,0.00,,,0.00,129.000000,,2013-12-16 16:13:00,
2013-12-16 10:23:00,5.0,-5.0,-100.00,South,174,5.0,7.0,62,0.00,,,0.00,129.000000,,2013-12-16 16:23:00,
2013-12-16 10:33:00,5.0,-5.0,-100.00,South,174,5.0,7.0,62,0.00,,,0.00,129.000000,,2013-12-16 16:33:00,
2013-12-16 10:43:00,5.0,-5.0,-100.00,South,174,5.0,7.0,62,0.00,,,0.00,129.000000,,2013-12-16 16:43:00,
2013-12-16 11:12:00,9.0,-3.0,-100.00,SSE,157,4.0,10.0,56,0.00,,,0.00,200.000000,,2013-12-16 17:12:00,
2013-12-16 11:22:00,9.0,-3.0,-100.00,SSE,157,4.0,10.0,56,0.00,,,0.00,200.000000,,2013-12-16 17:22:00,
2013-12-16 11:33:00,9.0,-3.0,-100.00,SSE,157,4.0,10.0,56,0.00,,,0.00,200.000000,,2013-12-16 17:33:00,
2013-12-16 11:42:00,9.0,-3.0,-100.00,SSE,157,4.0,10.0,56,0.00,,,0.00,200.000000,,2013-12-16 17:42:00,
2013-12-16 12:12:00,10.0,-3.0,-100.00,South,180,4.0,8.0,54,0.00,,,0.00,177.000000,,2013-12-16 18:12:00,
2013-12-16 12:22:00,10.0,-3.0,-100.00,South,180,4.0,8.0,54,0.00,,,0.00,177.000000,,2013-12-16 18:22:00,
2013-12-16 12:32:00,10.0,-3.0,-100.00,South,180,4.0,8.0,54,0.00,,,0.00,177.000000,,2013-12-16 18:32:00,
2013-12-16 12:42:00,10.0,-3.0,-100.00,South,180,4.0,8.0,54,0.00,,,0.00,177.000000,,2013-12-16 18:42:00,
2013-12-16 13:11:00,10.0,-3.0,-100.00,SW,227,3.0,11.0,55,0.00,,,0.00,71.000000,,2013-12-16 19:11:00,
2013-12-16 13:21:00,10.0,-3.0,-100.00,SW,227,3.0,11.0,55,0.00,,,0.00,71.000000,,2013-12-16 19:21:00,
2013-12-16 13:32:00,10.0,-3.0,-100.00,SW,227,3.0,11.0,55,0.00,,,0.00,71.000000,,2013-12-16 19:32:00,
2013-12-16 13:42:00,10.0,-3.0,-100.00,SW,227,3.0,11.0,55,0.00,,,0.00,71.000000,,2013-12-16 19:42:00,
2013-12-16 15:12:00,11.0,6.0,-100.00,South,170,1.0,6.0,80,-99.99,,,0.05,9.000000,,2013-12-16 21:12:00,
2013-12-16 15:22:00,11.0,6.0,-100.00,South,170,1.0,6.0,80,-99.99,,,0.05,9.000000,,2013-12-16 21:22:00,
2013-12-16 15:32:00,11.0,6.0,-100.00,South,170,1.0,6.0,80,-99.99,,,0.05,9.000000,,2013-12-16 21:32:00,
2013-12-16 15:43:00,11.0,6.0,-100.00,South,170,1.0,6.0,80,-99.99,,,0.05,9.000000,,2013-12-16 21:43:00,
2013-12-16 16:13:00,10.0,5.0,-100.00,SSE,162,3.0,5.0,78,0.06,,,0.11,8.000000,,2013-12-16 22:13:00,
2013-12-16 16:23:00,10.0,5.0,-100.00,SSE,162,3.0,5.0,78,0.06,,,0.11,8.000000,,2013-12-16 22:23:00,
2013-12-16 16:33:00,10.0,5.0,-100.00,SSE,162,3.0,5.0,78,0.06,,,0.11,8.000000,,2013-12-16 22:33:00,
2013-12-16 16:43:00,10.0,5.0,-100.00,SSE,162,3.0,5.0,78,0.06,,,0.11,8.000000,,2013-12-16 22:43:00,
2013-12-16 18:11:00,11.0,6.0,-100.00,WSW,238,4.0,7.0,80,-99.99,,,0.13,0.000000,,2013-12-17 00:11:00,
2013-12-16 18:22:00,11.0,6.0,-100.00,WSW,238,4.0,7.0,80,-99.99,,,0.13,0.000000,,2013-12-17 00:22:00,
2013-12-16 18:32:00,11.0,6.0,-100.00,WSW,238,4.0,7.0,80,-99.99,,,0.13,0.000000,,2013-12-17 00:32:00,
2013-12-16 18:42:00,11.0,6.0,-100.00,WSW,238,4.0,7.0,80,-99.99,,,0.13,0.000000,,2013-12-17 00:42:00,
2013-12-16 19:11:00,11.0,7.0,-100.00,SW,230,4.0,6.0,82,0.00,,,0.13,0.000000,,2013-12-17 01:11:00,
2013-12-16 19:22:00,11.0,7.0,-100.00,SW,230,4.0,6.0,82,0.00,,,0.13,0.000000,,2013-12-17 01:22:00,
2013-12-16 19:32:00,11.0,7.0,-100.00,SW,230,4.0,6.0,82,0.00,,,0.13,0.000000,,2013-12-17 01:32:00,
2013-12-16 19:42:00,11.0,7.0,-100.00,SW,230,4.0,6.0,82,0.00,,,0.13,0.000000,,2013-12-17 01:42:00,
2013-12-16 20:11:00,12.0,7.0,-100.00,SW,233,4.0,7.0,80,0.00,,,0.13,0.000000,,2013-12-17 02:11:00,
2013-12-16 20:22:00,12.0,7.0,-100.00,SW,233,4.0,7.0,80,0.00,,,0.13,0.000000,,2013-12-17 02:22:00,
2013-12-16 20:32:00,12.0,7.0,-100.00,SW,233,4.0,7.0,80,0.00,,,0.13,0.000000,,2013-12-17 02:32:00,
2013-12-16 20:42:00,12.0,7.0,-100.00,SW,233,4.0,7.0,80,0.00,,,0.13,0.000000,,2013-12-17 02:42:00,
2013-12-16 21:11:00,12.0,8.0,-100.00,WSW,239,4.0,9.0,82,0.00,,,0.13,0.000000,,2013-12-17 03:11:00,
2013-12-16 21:22:00,12.0,8.0,-100.00,WSW,239,4.0,9.0,82,0.00,,,0.13,0.000000,,2013-12-17 03:22:00,
2013-12-16 21:33:00,12.0,8.0,-100.00,WSW,239,4.0,9.0,82,0.00,,,0.13,0.000000,,2013-12-17 03:33:00,
2013-12-16 21:43:00,12.0,8.0,-100.00,WSW,239,4.0,9.0,82,0.00,,,0.13,0.000000,,2013-12-17 03:43:00,
2013-12-16 22:13:00,13.0,9.0,-100.00,WSW,255,5.0,9.0,84,0.00,,,0.13,0.000000,,2013-12-17 04:13:00,
2013-12-16 22:23:00,13.0,9.0,-100.00,WSW,255,5.0,9.0,84,0.00,,,0.13,0.000000,,2013-12-17 04:23:00,
2013-12-16 22:33:00,13.0,9.0,-100.00,WSW,255,5.0,9.0,84,0.00,,,0.13,0.000000,,2013-12-17 04:33:00,
2013-12-16 22:43:00,13.0,9.0,-100.00,WSW,255,5.0,9.0,84,0.00,,,0.13,0.000000,,2013-12-17 04:43:00,
2013-12-16 23:11:00,14.0,11.0,-100.00,West,271,7.0,12.0,86,0.00,,,0.13,0.000000,,2013-12-17 05:11:00,
2013-12-16 23:22:00,14.0,11.0,-100.00,West,271,7.0,12.0,86,0.00,,,0.13,0.000000,,2013-12-17 05:22:00,
2013-12-16 23:33:00,14.0,11.0,-100.00,West,271,7.0,12.0,86,0.00,,,0.13,0.000000,,2013-12-17 05:33:00,
2013-12-16 23:42:00,14.0,11.0,-100.00,West,271,7.0,12.0,86,0.00,,,0.13,0.000000,,2013-12-17 05:42:00,